GFSSW_prec_radar_108.txt.gz
Reflectivity
-12 18 11 -20 -20 -20 -20 -20 -20 -20 -20 -20 -20 -20 -20 -20 -20 -20 -20 -20 -20 -20 -20 -20 -20 -20 -20 -20 -20 -20 -20 -20 -20 -20 -20 -20 -20 -20 -20 -20 -20 -20 -20 -20 -20
-8 1 -4 16 -20 -20 -20 -20 -20 -20 -20 -20 -20 -20 -20 -20 -20 -20 -20 -20 -20 -20 -20 -20 -20 -20 -20 -20 -20 -20 -20 -20 -20 -20 -20 -20 -20 -20 -20 -20 -20 -20 -20 -20 -20
-18 3 5 17 -1 -20 -20 -20 -20 -20 -20 -20 -20 -20 -20 -20 -20 -20 -20 -20 -20 -20 -20 -20 -20 -20 -20 -20 -20 -20 -20 -20 -20 -20 -20 -20 -20 -20 -20 -20 -20 -20 -20 -20 -20
-16 2 -5 -2 23 -20 -20 -20 -20 -19 -20 -20 -20 -20 -20 -20 -20 -20 -20 -20 -20 -20 -20 -20 -20 -20 -20 -20 -20 -20 -20 -20 -20 -20 -20 -20 -20 -20 -20 -20 -20 -20 -20 -20 -20
-0 0 8 4 13 14 -17 -20 -20 2 -17 -20 -20 -20 -20 -20 -20 -20 -20 -20 -20 -20 -20 -20 -20 -20 -20 -20 -20 -20 -20 -20 -20 -20 -20 -20 -20 -20 -20 -20 -20 -20 -20 -20 -20
-20 1 -4 3 -9 20 -7 -20 -20 -12 -20 -20 -20 -20 -20 -20 -20 -20 -20 -20 -20 -20 -20 -20 -20 -20 -20 -20 -20 -20 -20 -20 -20 -20 -20 -20 -20 -20 -20 -20 -20 -20 -20 -20 -20
-20 -18 4 4 -14 -19 27 16 7 -19 -20 -20 -20 -20 -20 -20 -20 -20 -20 -20 -20 -20 -20 -20 -20 -20 -20 -20 -20 -20 -20 -20 -20 -20 -20 -20 -20 -20 -20 -20 -20 -20 -20 -20 -20
-20 -20 -0 0 11 -16 14 22 16 -20 4 -20 -20 -20 -20 -20 -20 -20 -20 -20 -20 -20 -20 -20 -20 -20 -20 -20 -20 -20 -20 -20 -20 -20 -20 -20 -20 -20 -20 -20 -20 -20 -20 -20 -20
-20 0 -5 -20 10 15 26 7 25 10 -4 -20 -20 -20 -20 -20 -20 -20 -20 -20 -20 -20 -20 -20 -20 -20 -20 -20 -20 -20 -20 -20 -20 -20 -20 -20 -20 -20 -20 -20 -20 -20 -20 -20 -20
-17 -16 10 -15 -2 25 -2 35 26 38 4 -20 -20 -20 -20 -20 -20 -20 -20 -20 -20 -20 -20 -20 -20 -20 -20 -20 -20 -20 -20 -20 -20 -20 -20 -20 -20 -20 -20 -20 -20 -20 -20 -20 -20
24 -20 -20 9 11 26 26 36 33 32 9 -20 -20 -20 -20 -20 -20 -20 -20 -20 -20 -20 -20 -20 -20 -20 -20 -20 -20 -20 -20 -20 -20 -20 -20 -20 -20 -20 -20 -20 -20 -20 -20 -20 -20
14 1 -20 9 -20 18 24 31 24 -16 12 -10 -20 -20 -20 -20 -20 -20 -20 -20 -20 -20 -20 -20 -20 -20 -20 -20 -20 -20 -20 -20 -20 -20 -20 -20 -20 -13 -14 -20 -20 -20 -20 -20 -20
-18 18 -10 -20 -20 14 25 19 37 8 28 10 23 -20 -20 -20 -20 -20 -20 -20 -20 -20 -20 -20 -20 -20 -20 -20 -20 -20 -20 -20 -20 -20 -20 -20 -20 -20 -20 -20 -20 -20 -20 -20 -20
-20 -20 8 22 -20 -7 11 24 18 34 35 22 17 6 -20 -20 -20 -20 -20 -20 -20 -20 -20 -20 -20 -20 -20 -20 -20 -20 -20 -20 -20 -20 -20 -20 -20 -20 -20 -20 -20 -20 -20 -20 -20
-10 -14 0 18 -20 -20 20 25 21 41 30 0 -18 -12 -20 -20 -20 -20 -20 -20 -20 -20 -20 -20 -20 -20 -20 -20 -20 -20 -20 -20 -20 -20 -20 -20 -20 -20 -20 -20 -20 -20 -20 -20 -20
-13 -20 -5 -13 11 -15 17 32 35 38 36 21 -20 -20 -20 -20 -20 -20 -20 -20 -20 -20 -20 -20 -20 -20 -20 -20 -20 -20 -20 -20 -20 -20 -20 -20 -20 -20 -20 -20 -20 -20 -20 -20 -20
-1 -12 10 10 6 6 22 32 37 29 32 13 -17 -20 -20 -20 -20 -20 -20 -20 -20 -20 -20 -20 -20 -20 -20 -20 -20 -20 -20 -20 -20 -20 -20 -20 -20 -20 -20 -20 -20 -20 -20 -20 -20
-8 -20 -11 -9 8 20 23 37 30 19 32 7 -20 -20 -20 -20 -20 -20 -20 -20 -20 -20 -20 -20 -20 -20 -20 -20 -20 -20 -20 -20 -20 -20 -20 -20 -20 -20 -20 -20 -20 -20 -20 -20 -20
-3 -19 12 -20 -12 21 27 33 14 13 3 -20 -20 -20 -20 -20 -20 -20 -20 -20 -20 -20 -20 -20 -20 -20 -20 -20 -20 -20 -20 -20 -20 -20 -20 -20 -20 -20 -20 -20 -20 -20 -20 -20 -20
9 -1 -9 -19 -13 25 24 32 16 -12 5 -20 -13 -4 -20 -20 -20 -20 -20 -20 -20 -20 -20 -20 -20 -20 -20 -20 -20 -20 -20 -20 -20 -20 -20 -20 -20 -20 -20 -20 -20 -20 -20 -20 -20
1 15 -20 -20 25 23 21 24 -16 -20 26 14 13 -2 -20 -20 -20 -20 -20 -20 -20 -20 -20 -20 -20 -20 -20 -20 -20 -20 -20 -20 -20 -20 -20 -20 -20 -20 -20 -20 -20 -20 -20 -20 -20
7 27 -19 25 11 5 13 10 -20 -20 35 15 20 4 -9 -20 -20 -20 -20 -20 -20 -20 -20 -20 -20 -20 -20 -20 -20 -20 -20 -20 -20 -20 -20 -20 -20 -20 -20 -20 -20 -20 -20 -20 -20
9 -10 -17 24 18 8 -11 -20 -16 -7 26 18 -17 15 -18 -18 -4 -20 -3 -20 -20 -20 -20 -20 -20 -20 -20 -20 -20 -20 -20 -20 -20 -20 -20 -20 -20 -20 -20 -20 -20 -20 -20 -20 -20
7 -6 12 29 22 11 11 4 11 -15 23 29 5 -4 9 11 -20 -20 -20 -12 -8 -20 -20 -20 -20 -20 -20 -20 -20 -20 -20 -20 -20 -20 -20 -20 -20 -20 -20 -20 -20 -20 -20 -20 -20
11 -2 14 2 20 3 -1 27 12 9 6 25 5 23 6 -6 -16 -20 -20 -13 -20 -20 -20 -20 -20 -20 -20 -20 -20 -20 -20 -20 -20 -20 -20 -20 -20 -20 -20 -20 -20 -20 -20 -20 -20
19 13 14 12 -13 24 -13 -1 19 8 12 9 26 -20 -20 8 -20 -20 -20 -20 -20 -20 -20 -20 -20 -20 -20 -20 -20 -20 -20 -20 -20 -20 -20 -20 -20 -20 -20 -20 -20 -20 -20 -20 -20
11 -0 15 -15 3 25 24 7 -2 -19 -20 -4 -6 -20 1 -20 -20 -18 19 17 -9 -16 -20 -20 -20 -20 -20 -20 -20 -20 -20 -20 -20 -20 -20 -20 -20 -20 -20 -20 -20 -20 -20 -20 -20

GFSSW_prec_radar_114.txt.gz
Reflectivity
-20 4 19 8 -5 -20 -20 12 -12 -20 -20 -20 -20 -20 -20 -20 -20 -20 -20 -20 -20 -20 -20 -20 -20 -20 -20 -20 -20 -20 -20 -20 -20 -20 -20 -20 -20 -20 -20 -20 -20 -20 -20 -20 -20
-20 -16 0 14 9 3 -20 -20 16 -20 -20 -20 -20 -20 -20 -20 -20 -20 -20 -20 -20 -20 -20 -20 -20 -20 -20 -20 -20 -20 -20 -20 -20 -20 -20 -20 -20 -20 -20 -20 -20 -20 -20 -20 -20
-1 -20 4 6 11 11 -19 -10 -11 18 -20 -20 -20 -20 -20 -20 -20 -20 -20 -20 -20 -20 -20 -20 -20 -20 -20 -20 -20 -20 -20 -20 -20 -20 -20 -20 -20 -20 -20 -20 -20 -20 -20 -20 -20
-20 4 -20 -10 0 12 -11 -20 -19 6 17 -20 -20 -20 -20 -20 -20 -20 -20 -20 -20 -20 -20 -20 -20 -20 -20 -20 -20 -20 -20 -20 -20 -20 -20 -20 -20 -20 -20 -20 -20 -20 -20 -20 -20
7 -19 2 -20 10 -6 7 11 5 -4 22 -13 -20 -20 -20 -20 -20 -20 -20 -20 -20 -20 -20 -20 -20 -20 -20 -20 -20 -20 -20 -20 -20 -20 -20 -20 -20 -20 -20 -20 -20 -20 -20 -20 -20
-20 -3 6 8 -14 5 -15 5 8 6 -5 29 -10 -20 -20 -20 -20 -20 -20 -20 -20 -20 -20 -20 -20 -20 -20 -20 -20 -20 -20 -20 -20 -20 -20 -20 -20 -20 -20 -20 -20 -20 -20 -20 -20
4 2 12 11 8 -18 -11 -20 -20 -20 -20 26 18 -5 -20 -20 -20 -20 -20 -20 -20 -20 -20 -20 -20 -20 -20 -20 -20 -20 -20 -20 -20 -20 -20 -20 -20 -20 -20 -20 -20 -20 -20 -20 -20
4 -8 2 8 6 -20 -14 -20 -20 -20 -20 13 23 1 -20 -20 -20 -20 -20 -20 -20 -4 -18 -20 -20 -20 -20 -20 -20 -20 -20 -20 -20 -20 -20 -20 -20 -20 -20 -20 -20 -20 -20 -20 -20
12 -1 -2 -19 -20 -20 -2 -20 -20 -20 -20 21 32 20 13 -20 -20 -20 -20 -20 -20 -20 -5 -19 -20 -20 -20 -20 -20 -20 -20 -20 -20 -20 -20 -20 -20 -20 -20 -20 -20 -20 -20 -20 -20
5 8 -2 -18 -20 -20 -15 -20 -20 -10 -20 24 30 43 6 -20 -20 -20 -20 -20 -20 -20 -20 -10 -20 -20 -20 -20 -20 -20 -20 -20 -20 -20 -20 -20 -20 -20 -20 -20 -20 -20 -20 -20 -20
-20 -6 -19 4 -20 4 -20 -20 -20 9 16 12 18 13 -20 -20 -20 -20 -20 -20 -20 -20 -20 -20 -20 -20 -20 -20 -20 -20 -20 -20 -20 -20 -20 -20 -20 -20 -20 -20 -20 -20 -20 -20 -20
18 17 -18 -16 -20 -14 -14 -20 -11 22 20 17 27 -11 -20 16 -16 -20 -20 -20 -20 -20 -20 -20 -4 -19 -17 -8 -6 -20 -20 -20 -20 -20 -20 -20 -20 -20 -20 -20 -20 -20 -20 -20 -20
1 11 -3 -20 -20 -20 -20 -20 -13 18 29 -4 12 9 -20 -12 -5 -20 -20 -20 -20 -20 -20 -20 -20 3 5 4 -14 -20 -20 -20 -20 -20 -20 -20 -20 -20 -20 -20 -20 -20 -20 -20 -20
-20 -17 16 -13 -20 -16 -19 20 13 19 38 -3 -19 17 -15 27 11 -20 -20 -20 -20 -20 -20 -20 -20 -13 -11 -20 -20 -20 -19 -11 -20 -20 -20 -20 -20 -20 -20 -20 -20 -20 -20 -20 -20
-20 -20 16 -5 -20 -20 -20 15 -1 17 27 8 -20 -20 -20 11 10 -20 -20 -20 -20 -20 -20 -20 -20 -20 -20 -20 -20 -20 -6 -15 -20 -20 -20 -20 -20 -20 -20 -20 -20 -20 -20 -20 -20
-19 -20 9 -17 -16 -20 -20 -20 10 33 24 -16 -14 2 -19 -20 -8 -20 21 -18 -20 -20 -20 -20 -20 -20 -20 -20 -20 -20 -20 -20 -20 -20 -20 -20 -20 -20 -20 -20 -20 -20 -20 -20 -20
-20 -20 -2 21 -20 -20 17 22 6 19 11 20 -2 15 2 -20 -20 -20 32 12 7 12 -20 -20 -20 -20 -20 -20 -20 -20 -20 -20 -20 -20 -20 -20 -20 -20 -20 -20 -20 -20 -20 -20 -20
-20 -20 -19 -20 -20 -20 21 24 21 -18 -11 24 9 7 11 -20 3 18 25 3 -17 -20 -20 -20 -20 -20 -20 -20 -20 -20 -20 -20 -20 -20 -20 -20 -20 -20 -20 -20 -20 -20 -20 -20 -20
-20 -20 -20 -20 -20 21 24 13 -4 -20 2 23 1 41 20 16 -9 26 20 -18 -20 -20 -20 -20 -20 -20 -20 -20 -20 -20 -20 -20 -20 -20 -20 -20 -20 -20 -20 -20 -20 -20 -20 -20 -20
14 -2 -20 -20 -20 28 17 2 -3 -20 -20 14 17 24 33 21 19 26 32 25 -20 -20 -20 -20 -20 -20 -20 -20 -20 -20 -20 -20 -20 -20 -20 -20 -20 -20 -20 -20 -20 -20 -20 -20 -20
18 18 -20 -20 -6 22 27 -5 -19 -20 12 13 30 15 16 30 19 14 -13 -20 -20 -20 -20 -17 8 -7 -20 -20 -20 -20 -20 -20 -20 -20 -20 -20 -20 -20 -20 -20 -20 -20 -20 -20 -20
28 18 9 -20 20 7 21 -19 -20 -20 -20 -1 4 22 26 18 31 31 -15 -20 -20 -20 -20 -20 -6 21 -20 -20 -20 -20 -20 -20 -20 -20 -20 -20 -20 -20 -20 -20 -20 -20 -20 -20 -20
26 9 -20 23 -14 29 -5 -2 4 6 -20 -13 21 3 -19 35 39 20 -20 -17 -2 -13 -20 -16 23 16 -17 -3 -20 -20 -20 -20 -20 -20 -20 -20 -20 -20 -20 -20 -20 -20 -20 -20 -20
27 14 0 23 1 18 14 26 22 8 -20 -20 -19 14 19 7 16 31 8 19 26 22 -20 -4 -2 -20 -13 -20 -20 -20 -20 -20 -20 -20 -20 -20 -20 -20 -20 -20 -20 -20 -20 -20 -20
27 15 12 12 19 19 -1 10 22 -12 11 -20 -20 -20 24 25 8 -20 -20 10 25 17 7 28 29 -2 -20 -16 -10 -20 -20 -20 -20 -20 -20 -20 -20 -20 -20 -20 -20 -20 -20 -20 -20
25 18 27 13 -20 -13 6 -20 -20 7 23 1 -14 8 7 32 28 16 18 10 -20 -11 5 19 -14 -20 -20 -14 16 8 -20 -20 -20 -20 -20 -20 -20 -20 -20 -20 -20 -20 -20 -20 -20
6 10 27 -19 -20 3 -20 -13 -1 27 -2 14 10 12 12 9 25 34 35 29 29 29 16 -9 -20 -20 -18 -20 -8 11 -20 -20 -20 -20 -20 -20 -20 -20 -20 -20 -20 -20 -20 -20 -20

GFSSW_prec_radar_120.txt.gz
Reflectivity
7 -20 -4 15 10 11 -20 4 1 -16 -20 10 -4 4 -20 -20 -20 -20 -20 -20 -20 -20 -20 -20 -20 -20 -20 -20 -20 -20 -20 -20 -20 -20 -20 -20 -20 -20 -20 -20 -20 -20 -20 -20 -20
7 9 2 8 -4 -5 -5 -20 6 11 -4 -2 10 15 -9 -20 -20 -20 -20 -20 -20 -20 -20 -20 -20 -20 -20 -20 -20 -20 -20 -20 -20 -20 -20 -20 -20 -20 -20 -20 -20 -20 -20 -20 -20
5 7 6 3 10 1 1 -20 -20 10 11 3 -5 10 27 -20 -20 -4 0 -20 -20 -20 -20 -20 -20 -20 -20 -20 -20 -20 -20 -20 -20 -20 -20 -20 -20 -20 -20 -20 -20 -20 -20 -20 -20
-20 6 6 7 4 7 11 11 -18 -20 13 -17 -20 -2 25 5 -20 7 2 -15 -20 -20 -20 -20 -20 -20 -20 -20 -20 -20 -20 -20 -20 -20 -20 -20 -20 -20 -20 -20 -20 -20 -20 -20 -20
-20 7 8 8 -9 -1 7 -3 13 -20 6 -20 -20 -20 14 24 -13 -20 8 6 -1 -20 -20 -20 -20 -20 -20 -20 -20 -20 -20 -20 -20 -20 -20 -20 -20 -20 -20 -20 -20 -20 -20 -20 -20
-14 -11 8 7 -20 -18 -2 6 -0 5 -20 -14 -20 -20 13 22 -20 -20 -20 -20 -16 -19 -20 -20 -20 -20 -20 -20 -20 -20 -20 -20 -20 -20 -20 -20 -20 -20 -20 -20 -20 -20 -20 -20 -20
-18 -19 3 2 6 -20 -20 -10 6 -9 -20 -20 -20 -0 -1 13 -20 -20 -20 -20 -20 2 -17 -20 -20 -20 -20 -20 -20 -20 -20 -20 -20 -20 -20 -20 -20 -20 -20 -20 -20 -20 -20 -20 -20
11 15 -3 -6 8 3 -4 -20 -18 -20 -20 -20 -20 -4 18 -20 -20 -20 -20 -20 -20 -11 11 -5 -20 -20 -20 -20 -20 -20 -20 -20 -20 -20 -20 -20 -20 -20 -20 -20 -20 -20 -20 -20 -20
-6 -20 12 -20 -5 -15 -20 -20 -20 -20 -20 -20 4 6 -7 -20 -20 -20 -20 -20 -20 -20 -4 13 -10 -20 -20 -20 -20 -20 -20 -20 -20 -20 -20 -20 -20 -20 -20 -20 -20 -20 -20 -20 -20
-18 -1 8 -20 -2 -20 -20 -20 -20 -20 -20 -20 -16 2 -20 -20 -20 -20 -20 -20 -20 -20 -20 -4 -15 -20 -20 -20 -20 -20 -20 -20 -20 -20 -20 -20 -20 -20 -20 -20 -20 -20 -20 -20 -20
-20 -20 -20 -2 -3 -14 -20 -20 -20 -20 -20 -20 9 -20 -0 6 -20 -20 -20 -20 -20 -20 -20 -20 -20 -20 -20 -20 -20 -20 -20 -20 -20 -20 -20 -20 -20 -20 -20 -20 -20 -20 -20 -20 -20
10 3 -20 -20 -20 -20 -20 -20 12 18 17 -20 -20 7 -20 -20 -20 -20 -20 -20 -20 -20 -20 -20 -20 -20 -20 -20 -20 -20 -20 -20 -20 -20 -20 -20 -20 -20 -20 -20 -20 -20 -20 -20 -20
-8 -16 -20 -20 -20 -20 -20 -20 23 13 23 -20 -20 -20 -20 -9 6 -20 -20 -20 -20 -20 -20 -20 -20 -19 -20 -20 -20 -20 -20 -20 -20 -20 -20 -20 -20 -20 -20 -20 -20 -20 -20 -20 -20
-20 13 -20 -6 -20 -20 -20 -0 -19 -4 19 -20 -20 -20 -20 -20 15 -20 -20 -20 -20 -20 -20 -20 -20 -20 -20 -20 -20 -20 -20 -19 -20 -20 -20 -20 -20 -20 -20 -20 -20 -20 -20 -20 -20
-16 17 16 15 -20 -20 -20 -20 -20 20 -8 -20 -20 -20 -20 -19 -6 -19 -20 -15 -3 -20 -20 -20 -20 -20 -20 -20 -20 -20 -20 -2 -6 -20 -20 -20 -20 -20 -20 -20 -20 -20 -20 -20 -20
-1 3 6 -20 -20 -20 -20 -20 -17 6 -3 -20 -20 -15 -10 -20 -20 -19 15 12 -16 -3 -14 -20 -20 -20 -20 -20 -20 -20 -20 -19 -8 -20 -20 -20 -20 -20 -20 -20 -20 -20 -20 -20 -20
-20 -19 -18 -18 -20 -20 -20 -20 -13 3 -20 -19 -12 12 11 -13 -14 24 -5 -8 27 28 34 10 -20 -20 -20 -20 -9 -20 -20 -20 -20 -20 -20 -20 -20 -20 -20 -15 -18 -20 -20 -20 -20
-2 -20 -20 -20 -20 -20 -20 12 12 -20 -20 -20 -7 -20 25 28 -3 -13 28 20 9 -20 -18 -20 -20 -20 -20 -20 -20 -20 -20 -20 -20 -20 -20 -20 -20 -20 -20 -20 -20 -20 -20 -20 -20
-7 -20 -20 -20 -20 -20 2 11 7 -20 -20 -20 -20 -20 -20 12 25 12 -18 9 -4 2 -20 -20 -20 -20 -20 -20 -20 -19 -20 -20 -20 -20 -20 -20 -20 -20 -20 -20 -20 -20 -20 -20 -20
-20 -20 -20 -20 -19 1 7 -12 -17 -20 -20 -20 -20 -1 22 8 24 31 12 -15 3 -6 -20 -20 -20 -20 -20 -20 -20 -20 -20 -20 -20 -20 -20 -20 -20 -20 -20 -20 -20 -20 -20 -20 -20
-20 -20 -20 16 0 13 2 -20 -17 -18 -20 -20 -20 -14 -8 16 13 24 37 -2 -20 -20 -20 -19 -2 -20 -20 13 4 -20 -20 -20 -20 -20 -20 -20 -20 -20 -20 -20 -20 -20 -20 -20 -20
-20 -13 -20 -20 -3 29 -2 -19 9 16 12 12 -20 -20 -20 11 14 24 21 37 23 -20 9 -14 35 -19 5 -19 -20 -20 -20 -20 -20 -20 -20 -20 -20 -20 -20 -20 -20 -20 -20 -20 -20
-20 -20 -20 -20 -20 -20 20 16 17 -20 -20 -20 -18 -20 0 17 3 21 38 34 27 19 4 -14 1 -1 -0 -8 -4 11 -9 -20 -20 -20 -20 -20 -20 -20 -20 -20 -20 -20 -20 -20 -20
-17 -10 -20 -4 -7 -13 5 -20 18 -12 -20 -20 -20 -6 -20 -20 -1 13 21 34 28 36 30 5 2 24 28 16 15 21 -14 -20 -20 -20 -20 -20 -20 -20 -20 -20 -20 -20 -20 -20 -20
20 -18 -20 -20 -20 -20 -14 19 -3 -20 2 16 -20 18 6 7 -20 -4 11 11 23 35 33 28 19 9 28 -7 -20 -20 -20 -20 -20 -20 -20 -20 -20 -20 -20 -20 -20 -20 -20 -20 -20
13 -12 -2 5 -20 -20 -20 -7 -20 -8 -2 9 11 -8 -20 -1 18 -15 6 9 21 30 42 38 33 27 -20 -8 -4 -20 -8 -9 -16 -20 -20 -20 -20 -20 -20 -20 -20 -20 -20 -20 -20
18 -17 -12 -19 -13 -11 -20 -20 -20 -20 -20 2 -4 -20 -20 -18 -10 -20 -3 13 20 21 29 29 41 15 5 33 30 13 -9 -20 -20 -20 -20 -20 -20 -20 -20 -20 -20 -20 -20 -20 -20

GFSSW_prec_radar_123.txt.gz
Reflectivity
-8 2 8 3 10 -3 -2 -12 -20 -20 -17 15 -1 5 3 2 8 -20 -17 -17 -20 -20 -20 -20 -20 -20 -20 -20 -20 -20 -20 -20 -20 -20 -20 -20 -20 -20 -20 -20 -20 -20 -20 -20 -20
12 2 6 -4 12 8 9 10 2 -20 -20 3 13 -20 -8 4 -2 -20 7 9 -20 -20 -20 -20 -20 -20 -20 -20 -20 -20 -20 -20 -20 -20 -20 -20 -20 -20 -20 -20 -20 -20 -20 -20 -20
-20 7 8 14 9 10 8 -0 4 -11 -20 -14 12 -14 -18 -3 1 -20 -20 11 -17 -20 -20 -20 -20 -20 -20 -20 -20 -20 -20 -20 -20 -20 -20 -20 -20 -20 -20 -20 -20 -20 -20 -20 -20
-20 -20 11 8 10 11 16 5 2 0 4 -20 -15 -12 -20 11 8 -20 -20 -18 -16 9 -20 -20 -20 -20 -20 -20 -20 -20 -20 -20 -20 -20 -20 -20 -20 -20 -20 -20 -20 -20 -20 -20 -20
-20 -20 -20 12 12 11 4 2 11 4 3 -20 -20 4 -7 15 13 -20 -20 -20 -20 -1 5 -20 -20 -20 -20 -20 -20 -20 -20 -20 -20 -20 -20 -20 -20 -20 -20 -20 -20 -20 -20 -20 -20
-12 -20 -20 8 9 6 1 -3 1 3 -1 -20 -20 -20 15 -4 -20 -20 -20 -20 -20 -20 11 -1 -20 -20 -20 -20 -20 -20 -20 -20 -20 -20 -20 -20 -20 -20 -20 -20 -20 -20 -20 -20 -20
0 -11 -12 6 -13 -3 1 -20 -20 -20 -16 -20 4 14 10 -20 -20 -20 -20 -20 -20 -20 -20 16 4 -20 -20 -20 -20 -20 -20 -20 -20 -20 -20 -20 -20 -20 -20 -20 -20 -20 -20 -20 -20
-1 -2 -18 5 -16 -20 -11 -7 -20 -20 -20 -4 6 15 -13 -20 -20 -20 -20 -20 -20 -20 -20 -19 19 -9 -20 -20 -20 -20 -20 -20 -20 -20 -20 -20 -20 -20 -20 -20 -20 -20 -20 -20 -20
-9 -20 -12 -20 -20 -20 -20 -20 -20 -20 -20 -19 0 6 -20 -20 -20 -20 -20 -20 -20 -20 -20 -20 -8 5 -20 -20 -20 -20 -20 -20 -20 -20 -20 -20 -20 -20 -20 -20 -20 -20 -20 -20 -20
0 -15 4 -20 -20 -20 -20 -20 -20 -20 -20 -20 -8 -5 -20 -20 -20 -20 -20 -20 -20 -20 -12 -7 -20 -15 -20 -20 -20 -20 -20 -20 -20 -20 -20 -20 -20 -20 -20 -20 -20 -20 -20 -20 -20
-20 3 -12 -20 -20 -20 -20 -20 -20 -20 -20 -20 -10 -20 -20 -20 -20 -20 -20 -20 -20 -20 11 -20 -20 -20 -20 -20 -20 -20 -20 -20 -20 -20 -20 -20 -20 -20 -20 -20 -20 -20 -20 -20 -20
-2 -1 -15 -20 -20 -20 -20 -20 -17 16 27 -20 -20 -20 -20 -20 -20 -4 9 13 -20 -3 -20 6 -20 -20 -20 -16 -20 -17 -16 -20 -20 -20 -20 -20 -20 -20 -20 -20 -20 -20 -20 -20 -20
-19 2 -20 14 -20 -20 -20 -20 10 2 1 -20 -20 -20 -20 -20 -20 -14 10 -20 -20 -20 -5 -20 -20 -20 -20 -20 -20 -10 -14 -20 -20 -20 -20 -20 -20 -20 -20 -20 -20 -20 -20 -20 -20
-0 -7 -7 18 -20 -20 -20 -20 -20 4 12 -20 -20 -20 -20 -20 -12 -20 14 -19 8 -20 -20 -20 -20 -20 -20 -20 -20 -20 -1 -10 -1 6 -20 -20 -20 -20 -20 -20 -20 -20 -20 -20 -20
-2 -20 7 -16 -0 -20 -20 -20 -20 -19 4 -20 -20 -20 -20 -20 -20 -20 -18 15 -0 -20 9 -20 -20 -20 -20 -20 -20 -20 -19 9 13 11 7 -16 -20 -20 -20 -20 -20 -20 -20 -20 -20
-5 -6 5 -20 -20 -20 -20 -20 -20 12 -20 -20 -10 20 -4 -20 -20 -10 28 22 3 12 -10 -20 -20 -20 -20 -20 -20 -20 -20 -14 2 4 -20 -20 -20 -20 -20 -20 -20 -20 -20 -20 -20
-6 -20 -11 2 -20 -20 -20 -20 -20 2 -20 -20 -20 -20 20 11 -1 7 24 26 4 10 27 -20 3 -20 -20 -20 -14 3 -9 -20 -5 -20 -20 -20 -20 -20 -20 -20 -20 -20 -20 -20 -20
16 -20 -20 -20 -20 -20 5 -10 -18 -20 -20 -20 -20 -20 -20 19 7 -7 12 40 21 -10 -17 -20 -0 11 -20 -20 -19 -1 -20 -14 -15 -20 -20 -20 -20 -20 -20 -17 -13 -20 -20 -20 -20
-20 -20 -20 -20 -20 -9 6 -20 -20 -20 -20 -20 -20 -20 -16 34 19 8 -20 -1 30 25 20 -14 4 -20 -20 -20 -20 -20 9 -20 -20 -20 -20 -20 -20 -20 -20 -20 -19 -16 -20 -20 -20
-20 -20 -20 -20 -20 -7 -2 -20 -20 -20 -20 -9 -5 -20 -20 16 20 24 16 -20 -20 28 30 24 -4 -16 -20 -20 -12 -12 -20 -20 18 3 -20 -20 -20 -20 -20 -20 -20 -20 -20 -20 -20
-20 -20 -16 -20 -17 17 -8 -20 -20 -20 -20 -20 -19 -16 -20 -16 10 18 21 7 -12 -20 23 -3 -8 -3 9 27 20 13 -14 17 -3 -20 -20 -20 -20 -20 -20 -20 -20 -20 -20 -20 -20
-20 -16 -20 -20 -20 -14 11 -20 -20 -20 5 37 23 11 -20 -20 2 12 19 17 24 27 14 36 28 7 17 -6 -20 -20 -20 -19 -17 -20 -20 -20 -20 -20 -20 -20 -20 -20 -20 -20 -20
-17 -20 -20 -18 -6 -20 -20 -19 -20 -20 -20 7 12 -15 -17 16 11 13 9 31 37 34 27 28 20 16 2 -11 -13 2 5 12 -20 -20 -20 -20 -20 -20 -20 -20 -20 -20 -20 -20 -20
-4 -17 -20 -5 -20 -20 -18 -9 11 0 -13 14 -10 1 16 15 -3 -15 -3 13 19 24 31 32 38 19 0 7 -5 -19 -20 11 -20 -20 -20 -20 -20 -20 -20 -20 -20 -20 -20 -20 -20
16 -15 -20 -20 -20 -2 -20 -20 9 1 11 14 1 12 -4 6 -20 1 -20 -5 9 18 32 35 21 27 -14 -20 -20 -20 -20 -20 -20 -20 -20 -20 -20 -20 -20 -20 -20 -20 -20 -20 -20
-18 -20 -11 -20 -20 -20 -20 -20 -20 -20 11 -19 17 -5 7 -1 -9 8 7 -5 13 27 37 31 2 15 23 -10 11 5 8 -17 13 -20 -20 -20 -20 -20 -20 -20 -20 -20 -20 -20 -20
3 -14 -18 -4 -19 -18 -20 -20 -20 -16 -20 -20 -2 -20 -20 -20 -20 -20 -20 -14 5 16 15 20 23 25 13 -17 -2 15 1 -11 -10 -20 -20 -20 -20 -20 -20 -20 -20 -20 -20 -20 -20

GFSSW_prec_radar_126.txt.gz
Reflectivity
-20 -20 4 -0 11 5 5 -12 -1 11 7 -12 0 -0 14 -14 -20 -20 -8 -2 -2 -20 -20 -20 -20 -20 -20 -20 -20 -20 -20 -20 -20 -20 -20 -20 -20 -20 -20 -20 -20 -20 -20 -20 -20
-20 -20 -20 17 7 9 13 -2 6 4 5 8 -20 -10 10 -20 -20 -20 -20 -20 -9 -18 -20 -20 -20 -20 -20 -20 -20 -20 -20 -20 -20 -20 -20 -20 -20 -20 -20 -20 -20 -20 -20 -20 -20
-4 -20 -20 -16 10 10 11 11 10 8 7 4 4 -20 12 3 -20 -20 -20 -20 -20 -20 -20 -20 -20 -20 -20 -20 -20 -20 -20 -20 -20 -20 -20 -20 -20 -20 -20 -20 -20 -20 -20 -20 -20
-20 -8 -5 -20 -16 3 8 6 14 18 -8 11 4 10 9 16 7 -20 -20 -20 -20 -20 -20 -20 -20 -20 -20 -20 -20 -20 -20 -20 -20 -20 -20 -20 -20 -20 -20 -20 -20 -20 -20 -20 -20
-20 7 -20 -20 -2 8 -6 10 16 19 4 -2 4 14 -4 9 -20 -20 -20 -20 -20 -20 -20 -20 -20 -20 -20 -20 -20 -20 -20 -20 -20 -20 -20 -20 -20 -20 -20 -20 -20 -20 -20 -20 -20
6 3 -20 -12 -20 -16 -20 -20 -13 -12 -0 2 -8 6 15 -17 -20 -20 -20 -20 -20 -20 -20 -20 -20 -20 -20 -20 -20 -20 -20 -20 -20 -20 -20 -20 -20 -20 -20 -20 -20 -20 -20 -20 -20
1 -20 -12 -20 -20 -20 -20 -20 -20 -20 -20 -1 4 -5 9 -20 -20 -20 -20 -20 -20 -20 -20 -20 -20 -20 -20 -20 -20 -20 -20 -20 -20 -20 -20 -20 -20 -20 -20 -20 -20 -20 -20 -20 -20
12 12 -11 -20 -17 -20 -20 -20 -20 -20 -20 -20 3 -1 -2 -20 -20 -20 -20 -20 -20 -20 -20 -20 -20 -20 -20 -20 -20 -20 -20 -20 -20 -20 -20 -20 -20 -20 -20 -20 -20 -20 -20 -20 -20
9 9 -20 -9 -20 -20 -20 -20 -20 -20 -20 -20 2 -7 -15 -20 -20 -20 -20 -20 -20 -20 -20 -20 -20 -20 -20 -20 -20 -20 -20 -20 -20 -20 -20 -20 -20 -20 -20 -20 -20 -20 -20 -20 -20
3 8 9 10 -20 -14 -20 -20 -20 -20 5 -20 -6 12 -20 -20 -20 -20 -20 -20 -5 -20 -20 -19 -20 -20 -20 -20 -20 -20 -20 -20 -20 -20 -20 -20 -20 -20 -20 -20 -20 -20 -20 -20 -20
-20 -13 -0 5 -20 -20 -20 -20 -20 -20 -20 -20 -20 -20 -20 -20 -20 -20 -20 -20 -11 14 19 -20 12 -16 -20 -20 -20 -20 -20 -20 -20 -20 -20 -20 -20 -20 -20 -20 -20 -20 -20 -20 -20
-14 -14 -20 -20 -20 -20 -20 -20 -2 -2 -7 -20 -20 -20 -20 -20 -20 -20 15 24 11 1 -20 17 4 -4 -20 -20 -20 -20 -20 -20 -20 -7 -20 -20 -20 -20 -20 -20 -20 -20 -20 -20 -20
-17 -20 -20 -19 -20 -20 -20 -20 -20 -20 0 -20 -20 -20 -20 -20 -20 -20 -16 -7 -5 -0 -5 -7 14 -20 -20 -20 -20 -20 -20 -20 -9 9 -20 -20 -20 -20 -20 -20 -20 -20 -20 -20 -20
-14 -20 -15 -19 -20 -20 -20 -20 -20 -20 2 -20 -20 -20 -20 -20 -20 -20 -17 -15 23 -3 3 13 -20 -20 -20 -20 -20 -20 -20 -20 7 14 3 -20 -20 -20 -20 -20 -20 -20 -20 -20 -20
-8 -20 -12 9 -16 -20 -20 -20 -20 -20 -20 -20 -20 -20 -13 -18 -20 -20 -20 8 23 8 17 -1 -20 -20 -20 10 -20 -20 -20 -17 3 15 17 -20 -20 -20 -20 -20 -20 -20 -20 -20 -20
-20 -2 16 -20 -20 -20 -20 -20 -20 -20 -18 -20 -20 -20 -20 13 3 -18 -20 -18 28 24 19 -20 -20 -9 -20 -20 -20 -20 -16 -16 -12 8 18 8 -20 -20 -20 -20 -20 -20 -20 -20 -20
-18 -20 15 -8 -20 -20 -20 -20 -20 -20 -20 -20 -20 -20 -20 -19 -13 15 -20 18 11 24 23 9 13 -20 -20 -20 -16 2 9 22 20 16 8 -1 -11 -20 -20 -20 -20 -20 -20 -20 -20
10 -20 -13 -0 -20 -20 -8 -20 -20 -20 -20 -20 -20 -20 -20 -20 -5 4 8 9 15 31 23 10 19 8 -13 4 24 19 -2 6 1 2 -20 -20 -20 -20 -20 -20 -20 -20 -20 -20 -20
2 -20 -20 -13 -20 -13 -7 -20 -20 -20 -20 -20 -20 -20 -2 5 -8 11 15 -20 3 42 21 26 8 -20 -20 -20 -20 -11 5 -15 -20 -20 -20 -20 -20 -20 -20 -20 -20 -20 -20 -20 -20
-20 -20 -20 -20 -20 -3 6 -20 -20 -20 -20 -20 -20 -3 -20 -20 -20 6 3 -15 7 24 35 24 -6 -20 -20 -10 -20 -20 -16 -10 18 17 -20 -20 -20 -20 -20 -20 -20 -17 -15 -20 -20
-14 -10 -20 -20 -20 6 -19 -20 -20 -20 -20 -20 -20 -20 -20 -9 -20 -1 2 -0 12 18 32 41 31 -20 -4 5 -8 7 6 9 19 3 -20 -20 -20 -20 -20 -20 -20 -20 -17 -20 -20
-5 -1 -20 -20 10 -4 -19 -20 -20 -20 -20 -12 5 17 -20 -14 -3 -20 -20 -16 9 23 13 30 36 24 -20 -20 -20 -20 -20 -12 16 12 -20 -20 -20 -20 -20 -20 -20 -20 -20 -20 -20
21 -8 17 -4 -15 -13 -20 -20 -19 -20 -20 -17 -8 9 -13 12 12 13 20 8 13 24 10 13 25 26 33 29 10 19 -15 -19 -20 -20 -20 -20 -20 -20 -20 -20 -20 -20 -20 -20 -20
20 6 3 30 9 -20 -18 -20 -17 4 -16 14 7 -4 -20 -20 2 17 4 20 19 5 19 5 7 20 23 22 26 24 29 29 21 27 2 -20 -20 -20 -20 -20 -20 -20 -20 -20 -20
28 -8 -18 -12 2 -15 -5 -20 -20 -7 -2 3 11 15 17 19 -20 -8 -20 -17 -13 7 23 8 -15 -18 -20 -19 4 33 -20 -19 22 24 -7 -20 -20 -20 -20 -20 -19 -20 -20 -20 -20
-9 -20 -20 -20 -20 -20 13 -20 -20 -20 -20 -20 -13 -20 -20 -20 -20 -19 -20 -20 -15 -17 8 38 7 -20 -20 -20 -20 -20 15 -3 15 -20 -20 -20 -20 -20 -20 -20 -20 -20 -20 -20 -20
16 -9 13 -15 -20 -20 -20 -20 -20 -20 -20 -20 -12 -20 -20 -20 -16 -20 -20 -20 -20 -20 4 8 13 -6 -20 -20 -20 9 -12 -7 -19 -20 -20 -20 -20 -20 -20 -20 -20 -20 -20 -20 -20

GFSSW_prec_radar_129.txt.gz
Reflectivity
-19 2 -14 -20 -3 8 8 8 9 -20 7 7 2 -6 2 8 -5 -20 -20 -20 -20 -20 -20 -20 -20 -20 -20 -20 -20 -20 -20 -20 -20 -20 -20 -20 -20 -20 -20 -20 -20 -20 -20 -20 -20
-19 -14 -20 -20 -20 -20 9 8 8 -1 9 -15 1 -1 9 -20 -14 -20 -20 -20 -20 -20 -20 -20 -20 -20 -20 -20 -20 -20 -20 -20 -20 -20 -20 -20 -20 -20 -20 -20 -20 -20 -20 -20 -20
-20 -18 -20 -20 -15 -20 9 -20 10 9 10 13 -16 -6 10 -20 -11 -20 -20 -20 -20 -20 -20 -20 -20 -20 -20 -20 -20 -20 -20 -20 -20 -20 -20 -20 -20 -20 -20 -20 -20 -20 -20 -20 -20
-20 -20 4 -20 -16 -20 -20 4 -20 -16 9 15 7 -20 7 -16 -20 -20 -20 -12 11 -20 -20 -20 -20 -20 -20 -20 -20 -20 -20 -20 -20 -20 -20 -20 -20 -20 -20 -20 -20 -20 -20 -20 -20
-20 -20 -20 -20 -20 -20 -20 -20 -20 -20 -20 -20 11 -16 9 -2 -15 -20 10 -20 -20 -12 12 -20 -20 -20 -20 -20 -20 -20 -20 -20 -20 -20 -20 -20 -20 -20 -20 -20 -20 -20 -20 -20 -20
-20 -2 -20 -20 -20 -20 -20 -20 -20 -20 -20 -20 -8 8 10 -20 -20 -20 -20 -20 -20 -20 -20 15 -20 -20 -20 -20 -20 -20 -20 -20 -20 -20 -20 -20 -20 -20 -20 -20 -20 -20 -20 -20 -20
-1 -20 12 8 -20 -20 -20 -20 -20 -20 -20 -20 -17 8 11 -20 -20 -20 -20 -20 -20 -20 -20 -20 5 -20 -20 -20 -20 -20 -20 -20 -20 -20 -20 -20 -20 -20 -20 -20 -20 -20 -20 -20 -20
1 5 7 -20 -20 -20 -3 -20 -20 -20 -20 -20 -17 9 3 -20 -20 -20 -20 -20 -20 -20 -20 -16 -16 -9 -20 -20 -20 -20 -20 -20 -20 -20 -20 -20 -20 -20 -20 -20 -20 -20 -20 -20 -20
-11 -13 3 -6 2 -20 0 -20 -20 -20 -20 -20 -20 8 -18 -20 -20 -20 -20 -20 -20 -20 -20 8 22 -9 -4 -20 -20 -20 -20 -20 -20 -20 -20 -20 -20 -20 -20 -20 -20 -20 -20 -20 -20
-12 -20 -20 -7 -20 -20 -16 -20 -20 -20 -20 -20 10 7 -20 -20 -20 -20 -20 -20 -20 -20 12 22 23 17 13 6 -20 -20 -20 -20 -20 -20 -20 -20 -20 -20 -20 -20 -20 -20 -20 -20 -20
9 -18 -12 -20 -20 -20 -20 -20 -20 -20 -20 -20 -20 -20 -20 -20 -20 -20 -20 -20 -20 -20 15 11 22 20 -17 -6 -20 -20 -20 -20 -20 -3 -20 -20 -20 -20 -20 -20 -20 -20 -20 -20 -20
12 -18 -11 -20 -20 -20 -20 -20 -14 -4 -14 -12 -20 -20 -20 -20 -20 -20 -20 -20 -11 -20 -18 16 22 -0 -20 -20 -20 -20 -20 -20 -20 14 0 -20 -20 -20 -20 -20 -20 -20 -20 -20 -20
27 16 5 -20 -18 -20 -20 -20 -20 -20 -20 -20 -20 -20 -20 -20 -20 -20 -20 -20 -17 7 -9 13 15 -6 -20 -20 -15 -20 -20 -20 -20 4 22 -0 -20 -20 -20 -20 -20 -20 -20 -20 -20
31 25 13 -20 -18 -16 -20 -20 -20 -20 -20 -20 -20 -20 -20 -20 -20 -20 -20 -20 -20 5 -16 -12 -7 9 12 4 6 -19 -20 -20 -15 2 14 12 -18 -20 -20 -20 -20 -20 -20 -20 -20
32 26 23 -14 -20 -20 -20 -20 -20 -20 -20 -20 -20 -20 -20 -20 -20 -20 -20 -20 -20 10 19 -20 -9 11 21 16 -13 18 -20 -19 -0 3 12 -1 -20 -20 -20 -20 -20 -20 -20 -20 -20
31 28 24 4 -13 -20 -20 -20 -20 -20 -20 -20 -20 -20 -20 -20 -20 -20 -20 -20 -20 -20 34 7 -20 -7 -1 -4 -20 -13 -10 -14 2 12 22 16 -20 -20 -20 -20 -20 -20 -20 -20 -20
32 29 22 11 6 -20 -18 -9 -20 -20 -20 -20 -20 -20 -20 -20 -20 -20 -3 -20 -7 7 4 33 10 -20 7 13 1 8 33 12 25 21 15 -6 -20 -20 -20 -20 -20 -20 -20 -20 -20
28 27 21 22 14 -2 -12 -11 -20 -19 -20 -20 -20 -20 -20 -20 -20 -20 -20 3 -6 -9 15 27 25 -1 10 -14 23 -11 37 27 12 15 -4 -20 -20 -20 -20 -20 -20 -20 -20 -20 -20
28 23 20 23 14 9 -2 -20 -20 -20 -20 -20 -20 -20 -20 -20 -20 -20 -20 -4 -18 31 17 29 27 19 -19 -20 -20 13 0 -10 21 10 -20 -20 -20 -20 -20 -20 -20 -20 -20 -20 -20
20 30 22 28 19 11 -12 -19 -20 -20 -20 -20 -20 -20 -20 -20 -20 -20 -20 -3 -18 6 29 19 27 9 -11 18 -6 15 -20 6 21 25 2 -20 -20 -20 -20 -20 -20 -20 -20 -19 -20
28 28 19 20 14 19 -5 -20 -20 -20 -20 -20 -20 -20 -20 -20 -20 -20 -20 -8 -12 9 25 28 22 29 20 20 -0 5 23 22 7 14 -18 -20 -20 -20 -20 -20 -20 -20 -7 2 -8
33 18 19 13 11 6 -13 -20 -20 -20 -20 -20 -20 -20 -20 -20 -9 -19 -20 -20 -7 -7 11 18 18 15 39 20 -20 -20 -20 18 3 14 -20 -20 -20 -20 -20 -20 -20 -20 1 1 -4
34 16 23 7 -2 -6 -17 -20 -20 -20 -20 -15 -20 -13 10 12 13 14 15 -12 -4 23 -14 11 17 1 13 32 18 8 -8 -7 -20 -20 -20 -18 -20 -20 -20 -20 -20 -20 -18 -11 -20
31 16 26 29 -7 -20 -20 -20 -20 -16 -7 -10 -1 8 8 -20 -9 13 -18 -10 -9 9 -17 23 11 3 14 27 29 28 21 21 7 -8 -20 -18 -20 -20 -20 -20 -20 -20 -20 -20 -20
31 7 -20 24 13 -0 5 -20 -20 -20 -16 -20 -20 -3 1 11 17 -1 -20 -20 -20 -15 7 35 10 16 15 14 26 22 23 23 -1 -20 -20 -20 -20 -20 -20 -17 -17 -20 -20 -20 -20
20 -7 5 17 18 16 14 -8 -20 -20 -20 -20 -20 -20 -20 5 -11 -8 -20 -20 -20 -20 -20 -8 -6 -2 8 5 17 23 24 34 27 -20 -20 -20 -20 -20 -20 -20 -19 -17 -20 -20 -20
31 18 13 16 7 10 -13 -12 -20 -20 -20 -20 -20 -20 -20 -20 -20 -20 -20 -20 -20 -20 -20 -19 -2 4 -8 8 -15 4 15 28 29 16 -16 -20 -20 -20 -20 -20 -20 -20 -20 -20 -20

GFSSW_prec_radar_135.txt.gz
Reflectivity
-20 -20 -20 -20 -20 -20 -20 -20 -20 -20 -20 -20 -20 -20 -0 6 -20 -20 -20 -20 -20 -20 -20 -20 -20 -20 -20 -20 -20 -20 -20 -20 -20 -20 -20 -20 -20 -20 -20 -20 -20 -20 -20 -20 -20
-20 -20 -20 -20 -20 -20 -20 -20 -20 -20 -20 -20 -20 -20 -20 -13 -20 -20 -20 -20 -20 -20 -20 -20 -20 -20 -20 -20 -20 -20 -20 -20 -20 -20 -20 -20 -20 -20 -20 -20 -20 -20 -20 -20 -20
-20 -20 -20 -20 -20 -20 -20 -20 -20 -20 -20 -20 -2 -13 -20 -20 -20 -19 -20 -20 -20 -20 -20 -20 -20 -20 9 -20 -20 -20 -20 -20 -20 -20 -20 -20 -20 -20 -20 -20 -20 -20 -20 -20 -20
-20 -20 -20 -20 -20 -20 -20 -20 -20 -20 -20 -20 -0 -20 -17 -20 -20 -11 -20 -20 -20 -20 -20 -20 -20 -20 -12 11 -20 -20 -20 -20 -19 -20 -20 -20 -20 -20 -20 -20 -20 -20 -20 -20 -20
-4 -20 -20 -20 -20 -20 -20 -20 -20 -20 -20 -20 -15 -2 -14 -20 -20 -20 -20 -20 -20 -20 -20 -20 -20 -20 -11 -4 -9 -20 -20 -20 -20 -20 -20 -20 -20 -20 -20 -20 -20 -20 -20 -20 -20
16 4 -20 5 -14 -10 -20 -20 -20 -20 -20 -20 -20 2 -6 -20 -20 -20 -20 -20 -20 -20 -20 -14 -11 -20 -20 -15 -17 -20 -19 -20 -20 -20 -20 -20 -20 -20 -20 -20 -20 -20 -20 -20 -20
11 16 3 3 -20 -12 -20 -20 -20 -20 -20 -20 0 -18 -20 -20 -20 -20 -20 -20 -20 -20 -20 -20 -20 -18 -2 7 -20 -20 -20 -20 -20 -20 -20 -20 -20 -20 -20 -20 -20 -20 -20 -20 -20
14 17 18 6 5 2 3 -19 -20 -20 -20 -20 -20 -20 -20 -20 -20 -20 -20 -20 -20 -20 -20 -20 -20 -20 -0 -14 -16 -20 14 6 -20 -20 -16 -20 -20 -20 -20 -20 -20 -20 -20 -20 -20
23 18 20 26 19 3 -19 -1 -20 -20 -20 -20 -20 -20 -20 -20 -20 -20 -20 -20 -20 -20 -20 -20 -20 9 -1 19 22 1 -20 -15 -20 -20 -20 -12 -20 -20 -20 -20 -20 -20 -20 -20 -20
27 25 26 28 24 14 -4 -1 -19 -20 -20 -20 -20 -4 -20 -20 -20 -20 -20 -20 -20 -20 -20 -20 -20 -18 13 19 7 -20 -20 -20 -20 -20 -20 -18 -20 -20 -20 -20 -20 -20 -20 -20 -20
18 27 30 29 27 23 11 3 -19 -20 -20 -20 -20 -12 -20 -20 -20 -20 -20 -20 -20 -20 -20 -20 -13 -0 -19 -8 -10 -17 -20 -20 -20 -20 -20 -20 -20 -20 -20 -20 -20 -20 -20 -20 -20
19 22 32 30 30 25 18 4 -8 -14 -20 -20 -18 -14 -20 -20 -20 -20 -20 -20 -20 -20 -5 -20 -20 -20 -20 -1 19 18 12 -17 -20 -20 -4 -17 -20 -20 -17 -20 -20 -20 -20 -20 -20
18 14 29 31 29 25 12 25 21 -2 -20 -20 -20 -20 -16 -20 -20 -20 -20 -20 -20 -20 -20 -20 -20 -20 -20 -13 11 13 18 -4 -20 -16 -16 -18 -3 -20 -20 -10 -20 -20 -20 -20 -20
13 21 31 29 28 26 30 29 17 18 7 -20 -20 -20 -20 -20 -20 -20 -20 -20 -20 -20 -20 -20 -20 -20 -20 -19 6 13 7 4 -20 27 11 17 18 -20 -20 -20 -20 -20 -20 -20 -20
13 26 27 27 16 26 28 29 22 19 9 -20 -20 -20 -20 -20 -20 -20 -20 -20 -20 -20 -1 -11 -20 -20 -20 -20 -20 14 22 4 17 17 7 -14 15 -20 -20 -19 -20 -20 -20 -20 -20
21 26 23 25 21 27 28 22 18 13 5 -20 -18 -20 -20 -20 -20 -20 -20 -20 -20 -20 -20 -20 -20 -20 -20 -20 -20 -20 26 22 25 19 21 12 -3 -20 -20 -17 -20 -20 -20 -20 -20
23 26 29 19 30 30 26 18 16 4 5 -2 -20 -20 -20 -20 -20 -20 -20 -20 -20 -20 1 -20 -20 -20 -20 11 4 -13 21 32 17 24 23 -20 -20 -20 -20 -18 -20 -20 -20 -20 -20
26 32 33 30 31 26 11 23 12 1 8 -9 -20 -20 -20 -20 -20 -20 -20 -20 -20 -20 2 6 -20 -20 -20 -14 9 -20 9 10 26 14 34 -18 10 -20 -20 -19 -13 -20 -20 -20 -20
24 21 29 30 30 20 23 16 -11 9 7 -20 -20 -20 -20 -20 -20 -20 -20 -20 -20 -2 20 9 1 -20 8 -20 -16 -16 21 30 24 14 21 -5 -20 -20 -20 -20 -1 -20 -20 -20 -20
-1 12 24 27 28 20 20 3 6 10 11 -19 -20 -20 -20 -20 -20 1 -20 -20 -20 -20 -1 -18 -3 -20 -20 16 -3 3 -15 16 33 28 19 -12 4 -20 -20 -20 -3 -12 -20 -20 -20
3 31 34 33 26 25 9 -4 1 11 10 -12 -20 -20 -20 -17 0 7 -11 -20 -2 5 23 15 15 -20 -4 19 -20 21 17 18 35 26 27 0 -11 -20 -20 -20 -7 3 -3 6 -1
13 15 34 31 25 20 7 5 -16 9 7 -19 -20 -20 -20 -18 2 10 6 12 -4 -20 -20 -8 24 -19 -20 -20 14 -16 17 27 19 28 11 30 -10 -2 -20 -20 -4 4 17 16 12
35 28 34 33 18 9 5 -11 -20 -1 -2 -20 -20 -20 -20 5 7 11 10 -20 18 -20 -20 -2 22 18 -12 -13 -20 1 15 10 17 23 29 13 8 10 -20 -20 -6 8 19 27 6
24 16 28 32 0 -4 7 -2 14 5 -13 -20 -20 -6 1 5 9 6 9 -8 -20 -20 -20 16 -1 15 24 22 17 16 5 17 21 21 19 23 10 -16 -10 -20 -13 3 13 14 7
18 12 -19 8 -2 19 12 6 11 7 -2 -4 -6 -7 2 1 -20 -11 -13 11 -20 -20 16 -20 -20 -20 -11 -19 -7 3 11 16 23 24 29 -0 -20 22 -6 -20 -19 -3 0 -0 -10
11 30 16 17 26 13 17 12 11 22 22 -2 -20 -2 6 -20 -20 -20 -20 -15 1 -20 -20 -16 -20 -20 -20 -20 -20 -5 3 12 13 9 16 16 5 -4 15 -11 -20 -16 -1 -3 -6
25 20 27 23 25 25 4 -20 19 12 6 -14 -18 -8 -20 -20 -20 -20 -20 -17 -3 -13 -20 -15 -20 -20 -20 -20 -20 -20 2 3 5 12 -17 3 -6 -20 -20 -6 14 -4 -16 -7 -4

GFSSW_prec_radar_138.txt.gz
Reflectivity
-20 -20 -20 -20 -20 -20 -20 -20 -20 -20 -20 -20 -20 -18 -20 -20 -20 -20 -20 -20 -20 -20 -20 -20 -20 -15 -20 -20 -20 -20 -20 -20 -20 -20 -20 -20 -20 -20 -20 -20 -20 -20 -20 -20 -20
-20 -20 -20 -20 -20 -20 -20 -20 -20 -20 -20 -20 -3 -0 -19 -20 -20 -20 -20 -20 -20 -20 -20 -20 -20 -20 -20 -20 -20 -20 -20 -20 -20 -20 -20 -20 -20 -20 -20 -20 -20 -20 -20 -20 -20
-20 -20 -20 -20 -20 -20 -20 -20 -20 -20 -20 -20 -13 0 -20 -20 -20 -20 -20 -1 -20 -20 -20 -20 -20 -20 -15 2 -20 -20 -20 -20 -20 -20 -20 -20 -20 -20 -20 -20 -20 -20 -20 -20 -20
-17 -18 -18 -19 -20 -19 -20 -20 -20 -20 -2 -20 -19 -20 -20 -20 -20 -20 -20 -20 -20 -20 -20 -20 -20 -20 -18 12 14 -5 -20 -20 -20 -20 -20 -19 -20 -20 -20 -20 -20 -20 -20 -20 -20
9 1 7 6 -4 9 6 -5 -20 -20 -20 -20 -0 3 -13 -20 -20 -20 -8 -4 -20 -20 -20 -20 -14 -10 -20 -20 13 10 -20 -20 -20 -20 -20 -20 -20 -20 -20 -20 -20 -20 -20 -20 -20
2 -2 10 13 21 16 18 14 -16 -20 -20 -20 -20 2 -17 -20 -20 -20 -20 -20 -20 -20 -20 -20 -20 -13 0 -20 -7 -20 -8 14 -20 -20 -20 -20 -20 -20 -20 -20 -20 -20 -20 -20 -20
15 14 19 19 17 22 17 15 3 -20 -17 -9 6 -0 -19 -20 -20 -20 -20 -20 -20 -20 -20 -20 -20 -2 -19 -3 -20 -20 -16 8 -18 -20 -20 -20 -20 -20 -20 -20 -20 -20 -20 -20 -20
11 11 16 21 22 21 23 21 17 -16 4 13 5 -6 -17 -20 -16 -20 -20 -20 -20 -20 -20 -20 -20 -1 -20 4 28 -1 -3 -7 -20 -20 -20 -20 -20 -20 -19 -20 -20 -20 -20 -20 -20
16 17 18 17 19 26 22 25 12 4 14 17 2 12 -20 -20 -14 -15 -20 -20 -20 -20 -20 -20 -17 -17 5 8 -8 15 -15 -20 -20 -20 -20 -20 -20 -20 -0 -17 -20 -20 -20 -20 -20
14 13 11 11 18 29 28 27 14 24 15 -7 -0 18 2 -16 -20 -14 -20 -20 -20 -20 -20 -20 -20 -20 -20 11 -11 -20 3 -5 -20 -20 -20 -20 -20 -20 -19 -3 -20 -20 -20 -20 -20
24 9 17 -11 -6 31 27 23 17 17 7 -13 -18 -3 7 7 -20 -20 -20 -20 -20 -20 -20 -20 -20 -20 -20 -20 -20 3 9 -5 -20 -20 -19 -20 -20 -20 -20 -4 -19 -20 -20 -20 -20
7 10 2 -16 16 24 18 9 20 14 12 6 1 12 1 -17 -20 -20 -20 -20 -20 -20 -20 -20 -20 -20 -18 1 -0 -1 -10 -20 -20 -20 -20 -20 -20 -20 -20 -18 0 -20 -20 -20 -20
4 -6 -3 21 22 21 6 23 28 27 23 -4 -20 -20 -15 -10 -20 -20 -20 -20 -20 -20 -20 -14 -20 -20 -11 -6 -8 -10 12 -20 -20 -20 -20 -15 -5 2 16 -20 -11 -13 -20 -20 -20
-19 14 19 27 22 15 23 25 26 30 19 -0 -20 -20 -20 -20 -20 -20 -20 -20 -20 -20 -20 -20 -20 -20 -20 -20 -20 -20 -20 -20 -15 8 8 -20 -7 -20 -20 -20 -20 -17 -20 -20 -20
-20 21 12 22 -15 2 16 28 27 27 19 10 -20 -20 -20 -20 -20 -20 -20 -20 -20 -20 -20 -20 -20 -20 -20 -20 -20 -20 -20 -5 -20 8 -10 -19 19 4 -20 -20 -20 -19 -20 -20 -20
4 25 11 -2 0 9 24 20 23 17 14 1 -2 1 -20 -20 -20 -20 -20 -20 -20 -20 -20 -20 -20 -20 -20 -20 -20 -20 -20 -19 4 -5 21 -16 17 -9 -20 -20 -20 -1 -6 -20 -20
8 21 9 1 12 24 24 29 22 13 8 13 10 -9 -20 -20 -20 -20 -20 -20 -20 -20 -20 -20 -20 -20 -20 -10 -20 -20 15 6 4 12 25 7 23 -19 -4 -20 -20 -12 -4 -20 -20
7 17 14 -0 21 24 25 25 18 5 4 14 6 -17 -20 -20 -20 -20 -20 -20 -20 -20 -20 -20 -20 -20 -20 -20 -20 -20 -17 21 8 -10 -20 -20 12 11 -20 -20 -20 -13 -18 -20 -17
-16 6 17 23 24 26 18 7 10 3 17 15 -19 -20 -20 -20 -20 -20 -20 -20 -20 -20 -17 7 -14 -20 -20 -15 6 0 12 -20 -4 -18 16 29 9 -20 -20 -20 -20 -20 -20 -20 -20
-20 2 25 26 28 27 14 -1 4 3 18 16 -20 -20 -20 -20 -20 -20 -20 -20 -20 -20 12 -17 -3 -19 -20 11 -19 -7 -20 5 16 9 5 -5 -10 -20 -20 -20 -20 -20 -20 -20 -20
15 27 38 27 27 23 4 -0 -16 10 15 10 -20 -20 -20 -20 -20 -20 -20 -20 -20 -20 -20 -2 -5 -20 -19 -14 12 23 -1 18 36 7 -13 8 -13 -20 -20 -20 -20 -20 -20 -1 -17
29 21 32 9 2 -1 -20 -19 -20 -4 2 -1 0 -20 -20 -20 -20 -20 -20 -20 -20 -20 -20 -20 -20 -7 -20 -20 -19 22 35 9 23 8 18 -20 -20 -20 -20 -20 -20 -20 -20 -15 6
-6 1 29 23 1 -12 -13 -20 -20 -13 0 12 3 -20 -20 -20 -17 -18 -20 -20 11 -8 -15 -20 -8 -3 -18 25 -5 7 17 12 23 16 -20 5 12 23 18 8 13 -20 -20 -12 5
-18 8 16 25 -5 -3 -5 -8 -20 7 -4 11 17 15 -19 -20 -20 -14 -7 -19 -16 -20 -20 -20 -1 -19 -20 12 9 1 -17 -13 19 8 3 -20 4 20 36 28 15 -20 -20 -16 -3
14 17 4 12 -20 5 -0 -2 -4 3 12 8 12 3 -20 -13 -20 -16 -15 -20 -5 -19 -14 -20 -20 -20 -20 -20 2 -14 -20 -20 -17 -10 -3 2 17 27 29 -3 11 -2 -20 -20 -8
25 32 16 -9 -20 0 -2 6 -13 15 13 -20 -2 -20 -20 -20 -20 -20 -20 -20 -20 -20 -20 -20 -20 -20 -20 -20 -20 -16 -20 -20 -20 -20 -20 -20 18 20 23 37 33 24 -15 -20 -17
31 -4 24 32 21 7 -0 -20 -20 11 16 -4 7 -13 -20 -20 -20 -20 -20 -20 -20 2 7 10 -5 -18 -20 -20 -20 -20 -5 6 -20 -20 -16 -12 -20 19 22 29 38 24 19 -12 -20

GFSSW_prec_radar_144.txt.gz
Reflectivity
4 1 -14 8 -6 -20 -20 -20 -9 -18 -20 -20 -20 -20 -20 -20 -20 -20 -20 -20 -20 -20 -20 -15 -20 -20 -20 -20 -20 -20 8 -20 -20 -20 -20 -20 -20 -20 -20 -20 -20 -20 -20 -20 -20
7 1 -11 -20 -20 -20 -20 4 5 8 15 2 17 10 -20 -20 -20 -20 -20 -20 -20 -20 -20 -20 -20 -20 -20 -10 -4 18 4 -20 -20 -20 -20 -20 -20 -20 -20 -20 -20 -20 -20 -20 -20
-8 -12 -1 1 -6 -20 -20 -7 -7 -0 -4 18 19 21 -5 -20 -20 -20 -20 -20 -20 -20 -20 -20 -20 -20 -20 -15 5 -16 -1 -20 -20 -20 -20 -20 -20 -20 -20 -20 -20 -20 -20 -20 -20
-20 -20 -6 10 11 16 13 13 11 -16 5 18 25 19 12 -20 -16 -16 -20 -20 -20 -20 -20 -20 -17 7 -20 -14 -20 13 -20 -19 -20 -20 -20 -20 -20 -20 -20 -20 -20 -20 -20 -20 -20
2 12 14 17 15 16 15 15 18 17 15 15 30 20 16 -9 -20 -10 -1 -20 -20 -20 -20 -20 -20 -7 -1 -20 4 -6 -19 12 8 -20 -20 -20 -20 -20 -20 -20 -20 -20 -20 -20 -20
14 15 18 15 16 12 14 17 1 19 19 14 30 16 8 2 -20 -16 -11 -20 -20 -20 -20 -20 -20 -20 -20 -20 -3 -20 -5 -19 4 14 -20 -20 -20 -20 -20 -20 -20 -20 -20 -20 -20
16 19 16 18 7 8 18 -4 17 15 21 12 32 17 8 -16 13 11 -20 -20 -13 -19 -20 -20 -20 -20 -20 -20 -7 -3 5 -20 -20 -4 -4 15 16 -20 -20 -20 -20 -20 -20 -20 -20
15 -7 -20 11 -20 -20 -20 15 -5 7 7 25 26 14 12 -18 -18 -20 -20 -5 -20 -20 -20 -17 -4 -20 -20 -20 -20 7 14 6 -20 -18 -20 21 1 -20 -20 -20 -20 -20 -20 -20 -20
-8 -20 -7 -20 -17 -9 10 1 -17 17 11 10 7 14 17 0 -8 -20 -20 -13 -20 -20 -20 -18 -2 -20 -20 -20 -12 2 10 9 -12 4 1 12 -11 -20 -20 -20 -20 -20 -20 -20 -20
-20 5 -18 10 -1 -3 -4 -20 5 21 19 12 25 22 7 -2 -12 5 -20 -1 -5 16 -2 8 7 -20 -20 5 -6 -10 11 -6 -5 10 18 -17 -7 -20 -20 -20 -20 -20 -20 -20 -20
-20 5 -12 -18 1 -20 -7 -19 3 -20 14 -11 -3 15 9 21 28 13 -18 -20 -20 -14 -20 16 -15 -20 -19 8 -8 -18 17 27 0 -20 13 34 27 -20 -20 -20 -20 -20 -20 -20 -20
1 3 7 12 -20 -20 -20 11 -18 -11 -11 -6 13 9 -16 21 16 -20 -11 -20 -20 -20 -20 -20 -20 -3 15 8 -8 -20 -20 -20 -20 2 17 18 -5 30 -15 -20 -20 -20 -20 -20 -20
0 -15 7 -4 -20 -20 -20 -20 -20 -20 21 0 -20 -20 -20 -20 -20 -20 -20 -20 -20 -20 -20 -19 -14 -20 -20 -10 -6 -20 -20 -20 0 13 16 12 17 -17 -4 -20 -20 -20 -20 -20 -20
-2 5 -7 -11 -3 -20 -20 -20 -5 -6 -7 -19 -20 -20 -20 -20 -20 -20 -20 -20 -20 -20 -20 -20 -20 -20 -20 -20 -20 -20 -8 -14 -14 -11 7 -14 -13 -19 -20 -20 -20 -20 -20 -20 -20
-20 -1 -20 1 -20 -20 -20 -10 -20 -20 -20 -20 -20 -20 -20 -20 -20 -20 -20 -20 -20 -20 -20 -20 -20 -20 -20 -20 -20 -20 -19 -16 -20 5 14 -5 2 -20 -20 -20 -20 -20 -20 -20 -20
-20 -15 1 -11 -18 -20 -17 -6 -20 -20 -20 -20 -20 -20 -20 -20 -20 -20 -20 -20 -20 -20 -20 -20 -20 -20 -20 -20 -20 -20 -20 -20 -20 -20 2 -18 -10 -20 -20 -20 -20 -20 -20 -20 -20
-20 -20 -20 -20 -18 -16 -17 -20 -20 -20 -20 -20 -20 -20 -20 -20 -20 -20 -20 -20 -20 -20 -20 -20 -20 -20 -20 -20 -20 -20 -20 -16 -20 -12 -20 -20 -20 -20 -20 -20 -20 -20 -20 -20 -20
-20 -20 -20 -20 -20 -20 -20 -20 -20 -20 -20 -20 -20 -20 -20 -20 -20 -20 -20 -20 -20 -20 -20 -20 -20 -20 -20 -20 -20 -20 -20 -19 -11 -20 -19 -20 -12 -20 -20 -20 -20 -20 -20 -20 -20
-20 -20 -20 -20 -20 -20 -20 -20 -20 -20 -20 -20 -20 -20 -20 -20 -20 -20 -20 -20 -20 -20 -20 -20 -20 -20 -20 -20 -20 -20 -20 -20 0 -20 8 -20 -20 -20 -20 -20 -20 -20 -20 -20 -20
-20 -20 -18 -20 -20 -8 -20 -20 -20 -20 -20 -20 -20 -20 -20 -20 -20 -20 -20 -20 -20 -20 -20 -20 -20 -20 -20 -20 -20 -20 -20 -20 6 12 5 -20 -20 -20 -20 -20 -20 -20 -20 -20 -20
-12 -9 -20 -20 -20 -20 -20 -20 -20 -20 -20 -20 -20 -20 -20 -20 -20 -20 -20 -20 -20 -20 -20 -20 -20 -20 -20 -20 -20 -20 -5 -1 22 18 -10 -13 -20 -20 -20 -20 -20 -20 -20 -20 -20
22 13 -5 -20 -19 -20 -20 -20 -20 -20 -20 -19 -20 -20 -20 -20 -20 -20 -20 -20 -20 -20 -20 -20 -20 -20 -20 -20 -20 -20 -20 -18 19 0 10 5 -20 -20 -20 -20 -20 -20 -20 -20 -20
3 24 23 -8 -20 -20 -20 -20 -20 -20 -20 -18 -20 -20 -20 -20 -20 -20 -20 -20 -20 -20 -20 -20 -20 -20 -20 -20 -20 -20 -20 -19 13 14 -5 13 -15 -14 5 -20 -20 -20 -20 -20 -20
8 4 11 23 -0 -10 -20 -20 -20 -20 -20 -20 -20 -20 -20 -20 -20 -20 -20 -20 -20 -20 9 -17 -20 -20 -20 -20 -20 -20 -20 -1 -4 2 -3 8 9 -20 8 -18 -20 -16 -20 -20 -20
18 3 -4 -11 -13 -15 -4 2 -1 -13 2 -13 -16 -20 -20 -20 -20 -20 -20 -20 -20 -20 -13 -20 -20 -20 -20 -20 -20 -20 -20 -20 -20 -6 5 -9 -3 -20 -20 -20 -14 23 -12 -20 -20
-20 -17 22 -8 -16 -13 0 -7 -20 -8 10 -20 -18 -20 -20 -20 -20 -20 -20 -20 -20 -20 -20 -20 -20 -20 -20 -20 -20 -20 -20 -13 -20 -18 -20 -20 -20 -20 -20 -20 -12 28 -13 -20 -20
-20 -18 -4 -3 1 -2 -18 -20 -20 -3 3 -20 -17 -20 -20 -20 -20 -20 -20 -20 -20 -20 -20 -20 -20 -20 -20 -20 -20 -20 -14 2 -2 -20 -20 -5 -3 -20 -20 -20 16 20 9 12 -20

GFSSW_prec_radar_147.txt.gz
Reflectivity
-5 -7 -9 -19 -13 5 4 8 10 8 -4 7 9 6 -19 -5 -20 -20 -20 -20 -20 -20 -20 -20 -20 -20 -20 -20 -20 -20 10 -0 -20 -20 -20 -20 -20 -20 -20 -20 -20 -20 -20 -20 -20
7 6 9 17 1 13 6 14 11 14 18 14 20 23 21 7 -17 -20 -20 -20 -20 -20 -20 -20 -20 -20 -20 -20 -11 13 9 -20 -20 -20 -20 -20 -20 -20 -20 -20 -20 -20 -20 -20 -20
16 16 10 20 16 12 5 16 8 14 18 20 20 25 27 7 -20 -20 -20 0 -20 -20 -20 -20 -20 -20 -6 -20 5 -15 -3 -20 -20 -20 -20 -20 -20 -20 -20 -20 -20 -20 -20 -20 -20
13 16 11 13 10 14 17 -5 5 17 15 15 18 26 27 7 1 -20 -17 -1 -20 -20 -20 -20 -19 -19 -19 -20 -20 10 -20 -20 1 -15 1 -20 -20 -20 -20 -20 -20 -20 -20 -20 -20
12 14 12 18 1 -11 3 8 -19 18 16 -2 3 25 21 16 -9 -20 -20 -20 -20 -10 -12 -20 -20 -2 -8 -11 -20 9 -20 -10 9 19 14 -10 -20 -20 -20 -20 -20 -20 -20 -20 -20
10 12 12 -19 -20 -16 -20 -20 2 -6 -5 -17 -8 17 22 10 -20 -20 -14 -14 0 19 -4 -19 -11 20 9 -14 -16 -20 6 -15 -15 8 6 9 3 14 -20 -20 -20 -20 -20 -20 -20
-12 -7 -20 -20 -20 -20 -19 -3 -5 -20 -20 -20 -12 9 8 18 -20 6 5 21 8 -20 -5 11 26 21 -4 -13 -10 -19 -18 -9 -20 -20 -6 13 7 -20 -17 -20 -20 -20 -3 -17 -20
-20 -20 -20 -19 -19 -20 2 -20 5 -20 -16 5 15 1 1 -5 -6 7 -11 -20 -20 -1 3 4 19 3 -20 -20 -19 -1 25 1 -20 6 5 20 2 -20 -20 -19 -20 -20 -20 -4 -20
-4 -20 -20 -7 -8 -20 -20 7 12 5 -13 -19 -6 -1 8 12 -14 -20 -20 -20 -18 15 7 -3 -12 6 19 10 5 14 14 -9 -6 18 13 12 8 3 -20 -17 -20 -20 -20 -17 -20
-20 -20 -20 -20 7 -11 -20 -12 8 3 1 -8 -11 -12 -15 -20 -20 -9 -13 18 -15 -15 12 26 29 3 -3 16 12 11 7 -20 -20 8 29 31 -6 -18 -5 -1 -1 -20 -20 -20 -20
-13 3 4 -20 7 -20 -20 -20 -20 -20 -20 -20 -10 -18 -20 -18 -20 -20 5 -20 -20 -20 6 14 -1 7 20 24 2 2 -20 -20 -20 -20 17 29 26 34 14 8 -5 -20 -20 -20 -20
-20 -2 8 12 1 -20 -20 -20 -20 -20 -20 -12 -18 -20 -20 -20 -20 -20 -20 -20 -20 -20 -20 -20 -2 -13 -19 14 14 13 7 -13 -20 -5 19 14 -17 -20 20 7 -8 -20 -20 -20 -20
-20 -20 8 -19 -7 -20 -20 -20 -20 -20 1 -20 -20 -20 -20 -20 -20 -20 -20 -20 -20 -20 -20 -20 -20 -20 -20 -14 4 16 19 13 5 5 -19 -19 -20 -20 -20 -20 -20 -20 -20 -20 -20
-20 -20 -13 -20 -20 -20 -20 -20 -20 -20 -20 -20 -20 -20 -20 -20 -20 -20 -20 -20 -20 -20 -20 -17 -6 -20 -20 -5 -18 -20 5 -14 -15 -8 -17 5 1 -20 -8 -20 -14 -20 -20 -20 -20
-20 -20 -20 -20 -20 -20 -20 -20 -20 -20 -20 -20 -20 -20 -20 -20 -20 -20 -20 -20 -20 -20 -20 -8 -15 -20 -20 -20 -20 -20 -20 -20 -20 -20 -20 -20 -16 -20 -11 -14 -20 -20 -20 -20 -20
-20 -20 -20 -20 -20 -20 -20 -20 -20 -20 -20 -20 -20 -20 -20 -20 -20 -20 -20 -20 -20 -20 -20 -20 -17 -18 -20 -20 -20 -20 -20 -20 -20 -20 -20 -20 -3 -18 -1 -20 -12 -20 -9 -20 -20
-20 -20 -20 -20 -20 -20 -20 -20 -20 -20 -20 -20 -20 -20 -20 -20 -20 -20 -20 -20 -20 -20 -20 -20 -20 -12 -15 -20 -20 -20 -20 -20 -20 -20 -20 -20 -20 -20 -11 -20 -20 -4 -9 -11 -20
-20 -20 -20 -20 -20 -20 -20 -20 -20 -20 -20 -20 -20 -20 -20 -20 -20 -20 -20 -20 -20 -20 -20 -20 -20 -20 -20 -20 -20 -20 -20 -20 -20 -20 -20 -20 -20 -20 -19 -15 -20 -20 -20 6 -18
-20 -20 -20 -20 -20 -20 -20 -20 -20 -20 -20 -20 -20 -20 -20 -20 -20 -20 -20 -20 -20 -20 -20 -20 -20 -20 -20 -20 -20 -20 -20 -20 -20 -20 -20 -20 -20 -20 -20 -14 -20 -20 -20 -9 -5
-20 -19 -20 -20 -20 -20 -20 -20 -20 -20 -20 -20 -20 -20 -20 -20 -20 -20 -20 -20 -20 -20 -20 -20 -20 -20 -20 -20 -20 -20 -20 -20 -20 -20 -20 -20 -20 -20 -20 -20 -15 -20 -20 -18 -0
-10 -5 -20 -20 -20 -20 -20 -20 -20 -20 -20 -20 -20 -20 -20 -20 -20 -20 -20 -20 -20 -20 -20 -20 -20 -20 -20 -20 -20 -20 -20 -20 -20 -20 11 -0 -20 -20 -20 -20 -20 -20 -20 -20 -15
8 -9 -13 -20 -20 -20 -20 -20 -20 -20 -20 -20 -20 -20 -20 -20 -20 -20 -20 -20 -20 -20 -20 -20 -20 -20 -20 -20 -20 -20 -20 -20 -20 -20 -20 -11 -16 -4 -20 -20 -20 -20 -20 -20 -13
-20 -20 6 -3 -20 -20 -20 -20 -20 -20 -20 -6 -20 -20 -20 -20 -20 -20 -20 -20 -20 -20 -20 -20 -20 -20 -20 -20 -20 -20 -20 -20 0 -17 -20 2 -14 20 31 -13 -8 -20 -20 -20 -20
-20 -8 -7 19 9 -16 -15 -20 -20 -20 -20 -20 -20 -20 -20 -20 -20 -20 -20 -20 -20 -20 -10 -20 -20 -20 -20 -20 -20 -20 -20 -20 -20 2 -20 -20 2 1 16 2 1 -20 -13 -20 -20
-20 -20 -20 -19 -20 -18 0 -20 -20 -20 -20 -20 -17 -20 -15 -2 -20 -20 -20 -20 -20 -20 10 -19 -20 -20 -20 -20 -20 -20 -20 -20 -20 -20 -6 -20 -14 -20 1 11 0 -20 -20 -20 -20
-20 -20 6 -19 -20 -20 -10 -20 -20 -20 -20 -20 -7 -20 -3 2 -20 -20 -20 -20 -20 -20 -4 -10 1 -20 -20 -20 -20 -20 -20 -20 -20 -20 -20 4 -20 -20 -20 -20 -20 2 -20 -20 -20
-20 -20 -11 -1 -20 -15 -20 -20 -20 -20 -19 -20 -19 -5 -15 -20 9 -17 3 -19 -20 -20 -20 -20 -20 -20 -20 -20 -20 -20 -20 -20 18 16 4 -20 -20 -20 -20 -20 1 -20 -20 -20 6